Location: The Saddle
(36.8333°N, 80.3417°W)
Time: 09:31:50
(UTC-04:00)

Explorer 7 - Visible Passes

Search period start: 17 July 2024 00:00
Search period end: 27 July 2024 00:00
Orbit: 465 x 619 km, 50.3° (Epoch: 16 July)

Date Brightness Start Highest point End Pass type
(mag) Time Alt. Az. Time Alt. Az. Time Alt. Az.
17 Jul 8.1 02:47:57 42° N 02:47:57 42° N 02:51:29 10° NE visible
17 Jul 9.4 04:24:35 10° WNW 04:27:38 17° NNW 04:30:39 10° NNE visible
18 Jul 8.4 02:39:45 36° N 02:39:45 36° N 02:43:17 10° NE visible
18 Jul 9.6 04:16:50 10° NW 04:19:42 16° N 04:22:31 10° NNE visible
19 Jul 8.6 02:31:27 32° NNW 02:31:27 32° NNW 02:35:03 10° NE visible
19 Jul 9.7 04:09:02 10° NW 04:11:44 15° N 04:14:23 10° NNE visible
20 Jul 8.9 02:23:05 28° NNW 02:23:05 28° NNW 02:26:47 10° NE visible
20 Jul 9.8 04:01:11 10° NW 04:03:44 15° N 04:06:17 10° NNE visible
20 Jul 9.7 05:41:39 10° NNW 05:44:50 19° NNE 05:47:57 10° ENE visible
21 Jul 9.1 02:14:37 24° NNW 02:14:45 24° NNW 02:18:28 10° NNE visible
21 Jul 9.8 03:53:14 10° NW 03:55:44 14° N 03:58:13 10° NNE visible
21 Jul 9.5 05:33:21 10° NNW 05:36:47 21° NNE 05:40:07 10° ENE visible
22 Jul 9.7 00:30:35 12° NE 00:30:35 12° NE 00:30:55 10° NE visible
22 Jul 9.3 02:06:00 21° NNW 02:06:39 21° NNW 02:10:09 10° NNE visible
22 Jul 9.9 03:45:11 10° NNW 03:47:42 14° N 03:50:12 10° NE visible
22 Jul 9.4 05:25:01 10° NNW 05:28:41 24° NNE 05:32:15 10° ENE visible
23 Jul 9.5 00:21:47 15° NE 00:21:47 15° NE 00:22:36 10° NE visible
23 Jul 9.5 01:57:11 17° NW 01:58:32 19° NNW 02:01:49 10° NNE visible
23 Jul 9.9 03:37:02 10° NNW 03:39:39 15° N 03:42:12 10° NE visible
23 Jul 9.1 05:16:38 10° NW 05:20:32 28° NNE 05:24:18 10° E visible
24 Jul 9.1 00:12:34 21° NNE 00:12:34 21° NNE 00:14:15 10° NE visible
24 Jul 9.7 01:47:56 12° NW 01:50:25 17° NNW 01:53:29 10° NNE visible
24 Jul 9.9 03:28:48 10° NNW 03:31:33 15° N 03:34:14 10° NE visible
24 Jul 8.8 05:08:14 10° NW 05:12:20 33° NNE 05:16:17 10° E visible
24 Jul 8.6 22:17:46 10° SSW 22:26:44 - ENE 22:19:17 20° S visible
25 Jul 8.4 00:01:51 38° NNW 00:01:51 38° NNW 00:05:51 10° NE visible
25 Jul 9.8 01:39:24 10° NW 01:42:17 16° N 01:45:09 10° NNE visible
25 Jul 9.9 03:20:30 10° NNW 03:23:24 16° N 03:26:17 10° NE visible
25 Jul 8.4 04:59:49 10° NW 05:04:05 40° NNE 05:08:12 10° E visible
25 Jul 7.1 22:09:11 10° SSW 22:13:26 51° SE 22:17:50 10° ENE visible
25 Jul 8.7 23:49:16 10° W 23:53:18 32° NNW 23:57:25 10° NE visible
26 Jul 9.9 01:31:23 10° NW 01:34:07 15° N 01:36:50 10° NNE visible
26 Jul 9.8 03:12:07 10° NNW 03:15:14 18° NNE 03:18:19 10° ENE visible
26 Jul 8.0 04:51:23 10° NW 04:55:47 49° NNE 05:00:01 10° ESE visible
26 Jul 6.9 22:00:39 10° SW 22:05:00 67° SE 22:09:30 10° NE visible
26 Jul 9.1 23:41:10 10° W 23:45:01 27° NNW 23:48:56 10° NE visible
